Weather History for MHRO - April, 2013

Change the Weather History Date:

Monday, April 22, 2013

  Actual Average Record
Temperature  
Mean Temperature 83 °F -  
Max Temperature 87 °F 86 °F 91 °F (1997)
Min Temperature 79 °F 77 °F 72 °F (2014)
Cooling Degree Days 18    
Growing Degree Days 33 (Base 50)    
Moisture  
Dew Point 73 °F    
Average Humidity 68    
Maximum Humidity 79    
Minimum Humidity 55    
Precipitation  
Precipitation 0.00 in - - ()
Sea Level Pressure  
Sea Level Pressure 29.93 in    
Wind  
Wind Speed 9 mph ()    
Max Wind Speed 14 mph    
Max Gust Speed -    
Visibility 6.4 miles    
Events      
Averages and records for this station are not official NWS values.
T = Trace of Precipitation, MM = Missing Value Source: Averaged Metar Reports

Daily Weather History Graph

Daily Weather History Graph

Search for Another Location

Airport or City:

Trip Planner

Search our weather history database for the weather conditions in past years. The results will help you decide how hot, cold, wet, or windy it might be!

Date:

Astronomy

Apr. 22, 2013 Rise Set
Actual Time 5:26 AM CST 6:02 PM CST
Civil Twilight 5:04 AM CST 6:25 PM CST
Nautical Twilight 4:38 AM CST 6:51 PM CST
Astronomical Twilight 4:11 AM CST 7:17 PM CST
Moon 3:16 PM CST (4/22) 2:50 AM CST (4/22)
Length of Visible Light 13h 21m
Length of Day
12h 36m
Waxing Gibbous, 88% of the Moon is Illuminated
Apr 22
Waxing Gibbous
Apr 25
Full
May 2
Last Quarter
May 9
New
May 17
First Quarter

Hourly Weather History & Observations

Time (CST) Temp. Heat Index Dew Point Humidity Pressure Visibility Wind Dir Wind Speed Gust Speed Precip Events Conditions
6:00 AM 80 °F - 74 °F 76% 29.93 in 7 mi ESE 11.5 mph - -   Haze
6:00 AM 80.6 °F 85.4 °F 73.4 °F 79% 29.92 in 6.2 mi ESE 11.5 mph - N/A   Scattered Clouds
7:00 AM 82.4 °F 87.2 °F 71.6 °F 70% 29.95 in 6.2 mi East 13.8 mph - N/A   Scattered Clouds
8:00 AM 84.2 °F 89.6 °F 71.6 °F 66% 29.95 in 6.2 mi East 11.5 mph - N/A   Partly Cloudy
9:00 AM 85 °F - 74 °F 62% 29.98 in 7 mi East 11.5 mph - -   Haze
9:00 AM 86.0 °F 93.4 °F 73.4 °F 66% 29.98 in 6.2 mi East 11.5 mph - N/A   Partly Cloudy
10:00 AM 86.0 °F 93.4 °F 73.4 °F 66% 29.98 in 6.2 mi East 11.5 mph - N/A   Partly Cloudy
11:00 AM 86.0 °F 93.4 °F 73.4 °F 66% 29.95 in - East 10.4 mph - N/A   Clear
12:00 PM 86 °F - 72 °F 55% 29.96 in 7 mi ESE 8.1 mph - -   Haze
12:00 PM 86.0 °F 91.8 °F 71.6 °F 62% 29.95 in - ESE 8.1 mph - N/A   Clear
1:00 PM 86.0 °F 91.8 °F 71.6 °F 62% 29.92 in - East 8.1 mph - N/A   Clear
2:00 PM 87.8 °F 93.8 °F 71.6 °F 58% 29.89 in 6.2 mi ESE 10.4 mph - N/A   Partly Cloudy
3:00 PM 87.8 °F 95.6 °F 73.4 °F 62% 29.89 in 6.2 mi East 11.5 mph - N/A   Partly Cloudy
4:00 PM 86.0 °F 93.4 °F 73.4 °F 66% 29.89 in 6.2 mi East 11.5 mph - N/A   Partly Cloudy
5:00 PM 84.2 °F 90.9 °F 73.4 °F 70% 29.89 in 6.2 mi East 13.8 mph - N/A   Scattered Clouds
6:00 PM 83 °F - 73 °F 65% 29.91 in 7 mi NNE 8.1 mph - -   Haze
6:00 PM 82.4 °F 88.2 °F 73.4 °F 74% 29.89 in 6.2 mi NE 10.4 mph - N/A   Scattered Clouds
7:00 PM 80.6 °F 85.4 °F 73.4 °F 79% 29.92 in 6.2 mi NE 8.1 mph - N/A   Partly Cloudy
8:00 PM 80.6 °F 85.4 °F 73.4 °F 79% 29.95 in 6.2 mi NE 8.1 mph - N/A   Scattered Clouds